Kuchera_Ratio
19.2 19.2 19.2 19.3 19.2 19.5 19.2 19.0 19.1 18.5 19.2 19.8 20.5 20.9 21.2 21.3 21.6 21.6 21.7 21.8 21.8 21.8 21.7 21.6 21.5 21.4 21.5 21.5 21.6 21.7 21.9 22.0 22.0 22.3 22.6 22.9 22.8 22.7 22.7 22.7 23.3 23.4 22.9 23.0 21.7 21.5 21.7 21.5 21.4 20.4 19.4 20.4 20.0 19.6 19.5 18.8 18.2 18.5 18.1 17.9 18.4 17.9 17.9 19.2 20.3 20.5 17.9 14.8 15.6 16.0 14.3 13.5 15.6 13.6 15.8 14.1 14.0 13.7 12.8 13.3 13.1 13.9 13.7 14.4 14.2
19.9 20.0 19.9 20.0 20.2 20.1 20.2 20.3 20.4 20.7 21.6 21.9 22.5 22.4 22.4 22.2 22.1 22.1 22.0 21.9 21.8 21.8 21.7 21.6 21.6 21.6 21.6 21.6 21.7 21.8 21.9 22.1 22.3 22.5 22.7 23.1 23.4 23.2 23.5 23.6 24.0 24.2 23.8 24.4 23.4 22.7 22.4 22.7 22.3 21.4 20.2 20.7 20.7 20.6 19.9 19.6 19.7 19.5 19.2 18.8 19.1 18.7 17.6 19.1 20.3 20.2 21.0 17.2 17.4 15.1 16.2 14.4 16.4 13.3 17.8 16.2 15.3 14.6 15.1 14.2 13.7 13.3 14.1 13.7 14.1
20.3 20.5 20.8 21.0 20.9 21.0 21.4 22.0 22.1 22.4 22.2 22.0 21.9 21.8 21.7 21.7 21.7 21.8 22.0 22.2 22.2 22.3 22.4 22.4 22.3 22.4 22.4 22.5 22.5 22.6 22.7 22.7 22.8 22.9 23.0 23.2 23.5 23.9 24.2 24.4 24.9 25.0 25.2 25.3 24.7 24.1 24.1 23.6 23.1 22.0 21.4 21.9 21.7 21.0 20.1 20.4 19.8 20.3 20.4 19.5 20.1 19.5 18.6 18.3 19.5 21.0 20.7 20.1 17.1 17.7 16.7 16.7 16.0 15.7 15.0 15.5 15.0 14.9 16.1 15.0 14.7 14.1 13.9 13.5 13.8
21.3 21.5 21.7 21.8 21.4 22.1 22.7 22.5 22.2 22.0 21.8 21.7 21.7 21.7 21.7 21.8 22.0 22.2 22.4 22.7 22.9 23.1 23.3 23.4 23.4 23.4 23.5 23.6 23.6 23.7 23.7 23.8 23.9 24.0 24.1 24.1 24.2 24.4 24.7 25.0 25.3 25.4 25.5 25.7 25.8 25.5 25.5 25.1 24.2 22.5 22.3 22.8 22.5 21.7 21.2 20.6 21.0 21.2 21.2 21.0 20.3 20.7 19.7 19.1 19.0 20.0 20.4 20.9 19.7 18.6 18.2 17.1 16.9 14.7 14.9 14.8 15.3 16.0 15.6 15.4 14.9 15.4 14.7 14.0 14.1
22.3 22.5 22.5 22.7 22.6 22.7 22.5 22.4 22.2 22.2 22.2 22.3 22.4 22.4 22.5 22.5 22.6 22.8 22.9 23.0 23.2 23.4 23.6 23.8 23.9 24.0 24.1 24.2 24.2 24.3 24.5 24.5 24.7 24.9 25.2 25.4 25.5 25.4 25.5 25.7 25.9 26.2 26.3 26.1 25.2 25.7 25.5 25.0 24.0 23.7 23.8 24.1 23.7 22.8 22.1 22.2 22.2 21.9 22.3 21.7 21.4 21.1 20.6 20.3 20.4 19.7 20.6 21.1 20.4 18.4 17.6 17.7 16.8 16.5 15.8 16.7 16.9 16.6 16.3 17.0 17.1 16.6 16.3 15.6 15.9
23.0 23.5 23.2 23.0 23.0 22.8 22.7 22.8 22.9 23.0 23.1 23.2 23.3 23.3 23.3 23.3 23.4 23.5 23.5 23.5 23.5 23.7 23.8 23.9 24.0 24.2 24.4 24.5 24.7 24.8 25.0 25.2 25.4 25.7 26.0 26.3 26.5 26.5 26.5 26.6 26.8 27.0 26.8 26.4 26.0 25.2 24.2 24.0 24.7 25.1 25.5 25.8 25.3 24.0 23.1 23.1 22.6 22.8 22.8 22.4 21.9 21.4 21.6 21.4 20.9 21.2 21.4 21.8 21.2 21.3 19.5 20.0 19.4 18.2 17.2 16.5 17.9 19.2 20.6 19.9 19.0 18.0 19.7 20.1 18.6
23.6 23.5 23.2 23.1 23.2 23.3 23.5 23.7 23.8 23.8 23.8 23.9 23.9 23.8 23.9 24.0 24.0 24.1 24.1 24.1 24.1 24.2 24.3 24.4 24.6 24.8 25.0 25.2 25.4 25.6 25.7 26.0 26.4 26.8 27.2 27.5 27.5 27.5 27.5 27.4 26.8 26.2 25.7 24.8 23.9 23.5 24.2 25.2 25.6 25.8 26.3 25.0 24.1 23.7 23.6 24.9 24.9 25.2 24.4 24.2 23.6 23.6 23.7 22.8 21.7 21.7 21.8 22.1 21.9 21.4 21.7 20.4 19.2 20.4 17.0 17.1 19.0 19.1 21.1 20.6 22.7 22.2 22.2 21.9 21.4
23.7 23.6 23.6 23.7 24.0 24.3 24.6 24.7 24.7 24.7 24.6 24.6 24.6 24.6 24.6 24.7 24.7 24.8 24.9 25.0 25.1 25.2 25.2 25.4 25.7 26.0 26.3 26.5 26.7 26.8 27.0 27.2 27.5 28.0 28.5 28.8 28.3 27.4 25.9 25.3 24.4 23.8 23.5 23.7 23.8 24.7 24.3 24.5 25.4 24.2 23.7 23.7 24.1 25.0 25.6 27.4 26.6 28.0 26.3 25.7 25.6 25.1 25.5 24.7 24.3 23.5 22.4 22.1 22.2 22.3 21.4 21.7 21.0 20.7 19.0 18.9 20.4 21.5 20.5 21.5 23.5 22.5 22.9 22.4 21.9
24.2 24.2 24.5 24.8 25.2 25.4 25.4 25.4 25.4 25.4 25.3 25.3 25.4 25.5 25.6 25.7 25.8 26.0 26.2 26.4 26.5 26.7 26.8 27.0 27.2 27.5 27.9 28.2 28.4 28.5 28.6 28.7 28.9 29.0 29.0 28.0 26.7 25.5 24.8 24.2 24.3 24.9 25.2 24.9 24.9 25.2 24.6 24.4 24.3 24.5 24.2 23.8 23.4 23.7 23.9 23.7 25.7 27.7 28.3 28.4 28.5 27.4 27.6 26.8 26.1 25.3 24.7 23.9 23.8 22.2 22.1 21.9 21.2 21.5 23.1 21.8 22.4 23.3 23.1 22.5 24.0 21.7 22.7 24.3 24.0
25.2 25.7 25.9 26.0 26.2 26.1 26.0 25.9 26.0 26.0 26.1 26.2 26.4 26.5 26.7 27.0 27.2 27.4 27.7 28.0 28.2 28.4 28.6 28.9 29.1 29.0 29.0 29.0 29.1 29.1 29.2 29.3 29.4 27.9 25.3 25.0 24.7 24.5 24.3 24.4 24.4 24.5 24.3 24.1 23.7 24.1 25.4 26.2 26.2 24.9 25.0 24.7 24.4 24.2 24.3 24.2 23.7 24.7 28.5 29.0 29.4 29.1 28.7 28.4 28.2 27.4 26.6 26.1 25.1 24.3 25.1 24.9 23.7 23.7 23.8 23.2 21.5 22.5 22.8 22.7 23.5 23.3 21.9 25.9 23.7
26.5 27.0 26.9 26.6 26.5 26.5 26.4 26.5 26.7 26.9 27.2 27.4 27.6 27.9 28.2 28.4 28.6 28.8 29.1 29.4 29.5 29.5 29.5 29.5 29.5 29.5 29.5 29.5 29.5 29.7 29.9 30.1 28.8 24.0 22.7 22.2 23.8 24.4 24.6 24.6 24.2 24.4 24.5 25.2 27.2 27.0 27.5 27.3 27.9 27.4 26.5 26.6 26.8 25.7 25.2 24.7 24.4 24.3 24.2 24.2 24.6 26.8 29.2 28.8 28.6 27.8 27.3 26.5 25.2 24.6 24.9 25.4 25.3 25.1 25.9 25.4 22.9 23.0 23.6 23.5 25.0 24.4 26.2 26.9 28.9
27.4 27.5 27.3 26.9 27.0 27.1 27.1 27.3 27.7 28.0 28.4 28.8 29.0 29.3 29.5 29.7 29.8 29.8 29.8 29.8 29.9 29.9 30.0 30.0 30.1 30.3 30.3 30.3 30.4 30.5 30.8 30.7 26.0 24.4 23.2 22.2 23.2 25.0 25.2 25.3 25.4 25.6 26.1 27.7 28.4 28.9 29.4 29.7 30.2 28.7 28.7 28.2 27.8 28.0 27.8 25.7 25.1 24.9 24.8 24.8 24.7 24.4 24.1 25.8 27.2 27.5 27.1 26.9 26.3 25.0 24.9 26.5 26.4 26.1 26.3 25.7 26.5 23.9 24.9 25.0 26.8 27.0 27.3 27.4 27.7
27.8 27.9 27.9 27.7 27.8 28.1 28.3 28.6 29.0 29.4 29.8 30.1 30.2 30.2 30.3 30.3 30.3 30.3 30.4 30.4 30.5 30.6 30.7 30.8 31.0 31.2 31.3 31.5 31.7 31.9 32.1 31.2 26.5 24.8 23.8 23.0 24.0 24.8 26.0 26.1 26.6 27.7 28.5 28.8 29.1 29.6 30.1 30.0 30.0 29.8 28.7 26.9 26.7 28.6 29.0 31.0 27.4 26.2 25.8 25.5 25.5 25.2 24.9 24.4 23.5 24.7 25.5 26.3 26.6 26.3 25.6 27.2 27.1 26.8 26.6 26.6 26.4 27.1 27.2 27.3 27.3 26.9 26.7 26.5 26.5
28.4 28.6 28.7 28.7 28.9 29.3 29.7 30.0 30.4 30.6 30.6 30.7 30.7 30.8 30.8 30.9 31.0 31.2 31.3 31.4 31.5 31.7 31.9 32.1 32.3 32.5 32.7 33.0 33.2 33.4 33.7 31.9 26.9 25.2 24.2 23.7 23.2 25.1 27.1 27.7 28.4 29.2 29.4 29.0 29.3 30.0 30.3 30.3 30.0 29.7 30.2 28.7 29.3 29.6 31.2 31.2 30.9 30.8 30.6 30.4 30.4 28.8 26.9 26.0 25.5 24.9 24.6 25.8 26.6 27.1 25.8 27.4 27.6 26.6 27.0 26.6 27.1 27.5 27.7 27.9 26.1 28.6 29.0 28.9 27.1
29.2 29.5 29.9 30.1 30.3 30.7 31.0 31.0 31.0 31.1 31.2 31.3 31.4 31.5 31.7 31.9 32.2 32.4 32.6 32.8 33.0 33.1 33.3 33.5 33.6 33.8 34.2 34.3 34.5 34.6 34.4 30.9 27.0 25.9 25.1 24.3 24.6 26.3 28.1 28.6 29.2 29.3 29.2 29.4 29.3 29.3 29.4 29.4 29.7 30.0 29.8 30.2 29.4 28.9 31.1 31.4 31.1 30.9 30.9 30.7 30.2 29.9 29.4 29.1 29.2 29.0 28.6 28.3 27.9 27.2 26.2 26.0 27.4 27.3 25.5 25.5 26.7 25.4 25.4 27.8 28.7 29.4 29.5 29.4 29.2
30.4 30.8 31.2 31.4 31.4 31.4 31.4 31.5 31.6 31.8 32.0 32.2 32.4 32.6 32.7 32.8 33.0 33.2 33.2 33.4 33.7 33.9 34.1 34.4 34.6 34.9 34.9 34.9 35.6 35.7 34.8 30.0 27.8 26.7 26.4 25.5 29.0 29.2 29.9 30.4 30.9 31.3 31.5 31.6 30.5 30.2 30.3 30.2 30.7 30.1 29.8 30.3 29.1 27.2 26.9 27.0 29.0 29.9 30.0 29.7 29.4 29.2 29.1 26.6 23.3 23.5 24.7 25.5 25.7 25.7 25.4 24.7 23.2 24.7 24.1 24.3 25.3 27.5 28.1 27.6 29.5 29.5 30.2 30.6 30.4
31.7 31.8 31.8 31.9 32.0 32.1 32.3 32.4 32.6 32.7 32.8 32.9 32.9 33.0 33.1 33.3 33.5 33.8 34.0 34.2 34.5 34.8 35.0 35.3 35.6 35.9 36.0 35.8 36.2 36.2 35.4 32.8 29.3 28.0 27.3 27.6 30.7 30.9 31.2 31.8 32.5 32.9 33.4 32.5 31.5 31.4 31.2 30.5 30.0 30.7 30.6 31.4 28.7 26.8 24.8 25.0 27.2 28.0 27.8 27.7 27.4 28.1 29.8 28.4 25.5 23.2 22.4 22.4 22.2 22.2 22.4 22.6 22.5 22.3 22.5 22.6 24.7 28.5 29.9 30.2 30.0 30.3 31.5 32.3 32.2
32.3 32.4 32.5 32.7 32.9 33.0 33.0 33.1 33.1 33.1 33.2 33.3 33.4 33.6 33.9 34.2 34.5 34.8 35.0 35.2 35.4 35.7 36.0 36.2 36.4 36.2 36.5 36.8 36.1 36.2 36.0 34.1 32.5 29.6 28.2 31.1 31.6 31.9 32.4 33.3 34.0 33.8 33.9 33.2 32.1 32.1 31.7 29.2 29.5 30.4 31.5 30.7 27.4 25.7 23.1 24.3 26.2 27.5 29.6 30.9 30.9 31.0 31.3 31.5 30.0 29.1 25.1 24.7 24.0 23.9 24.5 25.2 26.1 26.3 25.3 24.8 25.6 27.9 31.0 31.4 31.3 31.8 32.8 33.4 33.4
33.0 33.2 33.3 33.3 33.4 33.5 33.5 33.6 33.6 33.7 33.8 34.0 34.2 34.5 34.9 35.2 35.5 35.8 36.1 36.3 36.4 36.7 37.0 37.2 37.4 37.1 36.8 36.5 35.1 35.9 36.8 35.8 33.8 30.6 28.7 32.1 32.7 32.8 33.4 34.2 34.9 35.2 34.0 34.4 33.2 33.5 32.3 31.6 30.5 30.3 30.2 29.2 27.1 25.2 24.2 24.7 30.1 30.7 31.1 31.6 31.9 32.1 32.5 32.7 32.5 32.1 31.6 31.3 31.1 30.5 30.7 30.9 30.8 30.9 30.9 29.3 29.0 29.2 30.7 32.3 32.5 33.1 33.7 33.9 34.0
33.5 33.6 33.7 33.7 33.8 33.9 34.0 34.1 34.2 34.4 34.7 34.9 35.3 35.8 36.1 36.2 36.5 36.9 37.1 37.3 37.5 37.7 38.0 38.2 38.3 38.6 37.2 36.9 36.8 36.8 37.5 37.0 35.5 30.8 29.7 32.7 33.5 33.4 33.5 34.5 35.9 35.5 35.2 34.4 34.4 34.8 34.1 34.2 32.5 30.9 30.2 29.4 27.7 27.1 24.6 23.1 29.4 30.0 29.8 31.9 32.4 32.9 33.3 33.3 32.3 33.0 32.6 32.4 32.2 31.9 31.9 31.7 31.4 31.4 31.4 31.5 31.8 31.6 31.1 31.9 33.3 33.8 34.3 34.7 34.7
34.0 34.0 34.1 34.2 34.3 34.4 34.6 34.7 35.0 35.3 35.8 36.1 36.4 36.9 37.2 37.3 37.5 37.7 37.8 38.0 38.2 38.5 38.7 39.0 39.1 39.2 38.2 37.5 37.5 37.6 37.2 37.0 36.6 33.7 30.5 32.6 34.4 33.7 34.1 34.9 34.9 34.5 34.2 34.2 35.2 36.5 35.4 35.0 34.3 32.2 31.1 30.2 29.0 26.8 25.4 24.5 25.7 28.9 29.1 30.7 31.6 31.3 30.7 33.5 33.5 32.0 33.4 33.2 33.0 32.9 32.9 32.6 32.2 32.1 32.2 32.2 32.2 32.1 32.2 32.8 33.1 32.8 34.7 35.0 35.1
34.4 34.5 34.6 34.7 34.8 35.1 35.3 35.7 36.0 36.5 37.0 37.3 37.6 37.9 38.1 38.2 38.3 38.5 38.5 38.7 38.9 39.1 39.4 39.6 39.7 39.9 39.2 38.6 38.2 38.3 37.4 36.1 36.9 35.2 33.6 32.8 34.9 34.9 34.3 34.5 33.2 33.9 34.7 35.0 36.0 37.0 35.8 35.3 35.2 33.0 31.5 30.5 29.3 26.7 26.3 25.8 26.3 28.9 27.8 26.6 26.7 28.8 32.7 34.1 34.1 34.1 34.0 34.0 33.9 33.9 33.9 33.8 33.4 33.3 33.4 33.5 33.4 33.4 33.7 34.0 33.8 33.8 33.6 33.4 35.5
35.0 35.0 35.2 35.3 35.5 35.9 36.3 36.7 37.2 37.6 37.9 38.2 38.4 38.6 38.7 38.8 39.0 39.1 39.2 39.3 39.4 39.6 39.9 40.1 40.2 40.4 40.5 40.2 39.5 38.6 38.5 38.0 36.1 36.3 34.9 33.7 35.2 35.1 33.5 33.2 31.9 33.2 35.0 36.1 36.1 36.4 35.4 35.5 34.2 32.1 31.2 29.8 30.4 27.9 27.5 27.2 28.6 28.5 26.9 27.7 29.6 30.4 32.6 35.0 35.0 34.9 34.9 35.0 35.3 35.4 35.4 35.3 35.2 35.3 35.4 35.3 35.3 35.4 35.5 34.9 34.5 34.5 34.5 34.2 33.7
35.4 35.5 35.6 35.8 36.2 36.7 37.2 37.6 38.0 38.3 38.6 38.7 39.0 39.1 39.2 39.3 39.5 39.6 39.7 39.7 39.8 40.0 40.4 40.5 40.6 40.9 41.2 41.1 40.2 39.7 38.8 39.0 37.7 36.1 36.0 34.8 34.6 35.6 35.4 33.6 32.6 34.0 34.2 35.6 35.2 35.4 35.3 35.1 33.4 31.0 30.4 28.9 29.9 28.0 28.3 28.8 29.6 28.7 29.8 30.9 31.9 32.9 35.9 36.0 36.1 36.0 36.0 36.2 36.6 36.8 36.7 36.6 36.8 37.0 37.0 36.9 37.0 36.1 36.0 35.6 35.2 35.0 35.0 35.0 34.5
35.7 35.8 36.0 36.2 36.7 37.2 37.8 38.2 38.6 38.9 39.1 39.3 39.4 39.5 39.5 39.6 39.7 39.9 40.0 40.1 40.3 40.5 40.7 40.9 41.1 41.4 41.7 41.6 41.2 40.5 40.1 39.3 39.2 37.8 36.3 36.0 35.3 34.0 33.7 33.7 33.7 33.5 35.1 35.1 34.7 34.5 33.4 32.1 31.7 31.3 30.8 29.9 29.2 29.1 31.4 31.1 30.4 31.4 32.2 33.2 34.7 36.6 36.8 37.0 37.2 37.1 37.2 37.5 37.9 38.1 37.9 37.9 38.0 38.2 36.8 37.0 36.9 36.8 36.5 36.3 36.0 35.6 35.4 35.4 35.1
35.9 36.0 36.3 36.5 37.0 37.6 38.2 38.7 39.1 39.4 39.6 39.8 39.9 40.0 39.9 39.9 40.0 40.2 40.3 40.5 40.7 40.9 40.9 41.1 41.5 41.8 42.0 41.6 41.2 40.7 40.2 40.7 40.6 39.3 38.0 37.3 36.5 35.6 34.4 34.2 34.5 34.2 34.3 35.1 34.1 33.5 32.9 32.7 32.3 32.1 31.7 31.4 32.2 34.8 35.8 35.0 33.0 33.7 34.4 35.8 37.1 37.3 37.5 37.8 37.9 38.0 38.2 38.5 38.9 38.9 38.8 38.7 38.8 38.7 37.9 37.8 37.9 37.7 37.7 37.7 37.4 37.3 37.4 37.5 37.2
36.1 36.3 36.5 36.9 37.4 38.0 38.5 39.0 39.3 39.7 39.9 40.2 40.4 40.5 40.4 40.4 40.4 40.6 40.7 40.7 40.9 41.1 41.2 41.4 41.8 42.0 41.9 41.6 41.2 41.0 41.2 41.2 41.2 40.8 39.3 38.6 38.0 37.0 36.3 36.3 35.2 35.2 36.2 36.3 35.5 35.3 34.7 33.8 33.5 32.3 32.2 31.7 32.9 34.2 35.7 36.1 37.3 37.4 37.5 37.6 37.9 38.1 38.4 38.7 38.7 38.8 38.9 39.1 39.4 39.4 39.4 39.4 38.2 39.1 38.9 38.7 38.5 38.4 38.6 38.0 38.4 38.1 37.8 37.8 38.1
36.3 36.5 36.8 37.3 37.8 38.4 38.8 39.2 39.5 39.9 40.2 40.6 40.7 40.7 40.5 40.6 40.7 40.9 41.0 41.0 41.1 41.1 41.2 41.6 42.0 42.2 42.3 41.9 42.0 42.1 42.2 42.2 41.5 41.0 39.7 38.2 37.3 36.8 36.8 37.0 37.8 38.1 37.7 36.8 36.1 35.0 34.8 33.8 34.0 36.7 38.5 38.4 38.1 37.8 37.7 37.7 37.9 38.1 38.3 38.4 38.6 38.8 37.9 36.4 36.6 39.2 39.4 39.7 40.0 40.1 40.0 40.0 39.9 39.6 39.6 39.4 39.1 39.1 39.2 39.1 39.0 38.8 38.1 38.2 38.7
36.7 36.9 37.2 37.7 38.2 38.7 39.1 39.4 39.6 39.9 40.3 40.7 41.1 41.0 40.7 40.5 40.6 41.1 41.4 41.0 41.6 41.6 41.6 41.7 41.2 41.4 41.5 42.1 42.7 43.1 42.5 42.2 40.8 37.1 36.9 36.0 36.7 37.2 37.6 37.6 37.2 37.2 35.8 34.5 35.0 35.7 36.4 37.5 39.5 39.1 38.9 38.8 38.7 38.5 38.4 38.4 38.6 38.7 38.8 39.0 39.3 39.5 39.7 39.9 39.9 39.8 40.0 40.4 40.7 40.7 40.6 40.5 40.3 40.2 40.2 39.9 39.6 39.6 39.7 39.8 39.4 39.7 38.9 39.5 39.3
37.1 37.4 37.6 37.9 38.4 38.8 39.2 39.5 39.7 40.0 40.2 40.5 41.1 41.6 40.9 39.7 40.3 41.2 41.7 39.2 38.4 37.9 37.8 40.2 39.8 39.9 41.0 41.4 41.4 41.9 42.2 40.4 37.0 36.3 36.2 35.8 35.7 35.6 35.7 35.4 35.2 35.7 35.1 34.8 35.4 39.5 40.6 40.4 40.3 40.2 40.1 40.1 39.9 39.8 39.7 39.6 39.7 39.6 39.7 39.9 40.1 40.3 40.4 40.5 40.6 40.7 40.9 41.1 41.4 41.5 41.6 41.4 41.0 40.9 40.9 40.5 40.0 39.9 39.7 37.7 39.6 40.1 40.2 40.2 40.0
37.5 37.7 37.9 38.1 38.4 38.8 39.1 39.4 39.7 40.0 40.1 40.3 40.7 41.4 42.1 42.3 39.8 39.0 39.2 39.2 38.9 38.2 37.8 37.5 37.4 37.7 39.0 41.1 40.1 38.0 37.9 37.5 37.1 36.7 36.4 36.2 35.9 36.1 35.9 35.7 35.7 35.6 35.3 36.7 40.1 41.7 41.4 41.4 41.4 41.3 41.2 41.1 40.9 40.9 40.8 40.9 41.0 41.0 41.0 41.0 40.8 40.9 41.1 41.1 41.1 41.4 41.6 41.7 41.9 42.0 42.0 41.9 41.9 41.6 41.4 41.1 40.8 40.5 40.4 40.5 40.6 40.6 40.9 41.0 40.9
37.7 37.9 38.2 38.4 38.5 38.7 39.0 39.3 39.6 39.8 40.1 40.4 40.5 40.8 41.5 42.3 42.7 41.0 39.5 39.6 39.1 38.7 38.5 38.2 38.0 38.1 38.3 38.8 39.7 40.1 38.8 37.9 37.7 37.2 36.8 36.7 36.8 36.4 36.2 35.9 36.0 36.2 36.4 37.0 42.8 42.3 42.2 42.4 42.2 42.0 42.0 41.9 41.8 41.8 41.8 41.8 41.9 42.0 42.1 42.0 41.7 41.6 41.7 41.7 41.8 42.1 42.3 42.4 42.5 42.5 42.4 42.3 42.4 42.1 41.9 41.7 40.2 41.1 41.0 41.0 41.2 41.4 41.2 41.3 41.0
37.8 38.2 38.5 38.6 38.6 38.8 39.0 39.3 39.6 39.8 40.0 40.2 40.5 40.6 40.8 41.4 42.1 42.7 43.0 40.1 39.6 39.7 39.3 38.9 38.8 39.0 38.9 38.9 38.6 38.8 38.8 38.4 38.0 37.7 37.7 37.4 37.0 36.8 36.7 36.7 37.3 37.7 37.6 42.8 43.7 43.1 42.9 43.0 42.9 42.8 42.8 42.7 42.6 42.6 42.6 42.5 42.6 42.6 42.6 42.7 42.6 42.4 42.3 42.4 42.5 42.6 42.6 42.8 43.0 43.0 42.8 42.7 42.8 42.3 41.7 41.6 42.1 42.1 41.8 41.7 41.8 41.9 41.9 41.7 41.4
38.0 38.3 38.5 38.7 38.8 39.0 39.1 39.4 39.7 39.9 40.1 40.2 40.4 40.7 40.9 41.0 41.3 41.8 42.4 42.9 43.2 41.9 40.5 40.2 40.2 40.2 40.2 40.0 39.7 39.2 38.9 38.7 38.7 38.7 38.3 37.5 36.9 37.2 37.8 39.0 38.9 39.0 40.2 44.3 44.5 44.3 44.0 43.9 43.7 43.5 43.4 43.4 43.4 43.3 43.2 43.1 43.1 43.1 43.1 43.1 43.1 42.9 42.8 42.8 42.9 42.9 42.9 43.1 43.2 43.1 42.9 42.9 43.1 43.1 42.9 42.7 42.6 42.5 42.3 42.2 42.3 42.2 42.2 42.1 41.8
38.2 38.5 38.7 38.8 39.0 39.2 39.3 39.6 39.8 40.0 40.2 40.5 40.6 40.7 40.9 41.1 41.3 41.5 41.8 42.1 42.5 43.0 43.5 43.6 42.1 41.1 42.0 41.4 40.6 40.0 39.8 39.7 39.5 39.2 38.3 37.5 37.8 38.2 38.8 43.8 44.6 44.3 44.1 44.2 44.5 44.7 44.8 44.7 44.5 44.2 44.1 44.0 43.9 43.8 43.8 43.7 43.6 43.6 43.6 43.6 43.5 43.4 43.3 43.2 43.2 43.1 43.1 43.3 43.2 43.0 43.0 43.3 43.2 43.3 43.2 42.9 42.7 42.6 42.4 42.4 42.6 42.6 42.6 42.3 41.7
38.5 38.8 38.9 39.0 39.3 39.5 39.7 39.8 40.0 40.1 40.4 40.7 40.8 41.0 41.0 41.2 41.5 41.8 42.0 42.2 42.5 42.8 43.2 43.6 43.7 43.1 41.6 41.1 40.7 40.5 40.3 40.2 40.0 39.1 38.4 38.3 38.9 39.4 44.7 45.9 45.9 45.7 45.5 45.0 44.9 44.9 44.9 44.8 44.7 44.6 44.4 44.3 44.2 44.1 44.1 44.0 43.9 43.8 43.8 43.9 44.0 44.0 43.8 43.6 43.5 43.4 43.4 43.5 43.4 43.4 42.9 43.2 43.1 43.2 43.3 43.0 42.8 42.8 42.7 42.7 42.7 42.3 41.3 41.2 40.5
38.9 39.0 39.2 39.3 39.6 39.9 40.1 40.1 40.2 40.4 40.6 40.9 41.1 41.3 41.5 41.6 41.8 42.0 42.2 42.5 42.8 43.0 43.2 43.6 44.0 44.2 43.2 43.1 41.9 41.2 40.9 40.8 39.9 39.4 39.3 39.7 39.9 42.2 45.8 45.9 45.8 45.6 45.4 45.5 45.5 45.6 45.4 44.9 44.8 44.8 44.7 44.5 44.4 44.3 44.2 44.1 44.0 43.9 43.9 44.0 44.2 44.3 44.1 43.9 43.9 43.9 43.8 43.6 43.5 43.4 43.3 43.1 43.1 43.2 43.3 43.0 42.7 42.7 42.7 42.8 42.6 41.1 40.3 39.8 38.7
39.1 39.2 39.4 39.6 39.9 40.1 40.3 40.5 40.7 40.8 41.0 41.1 41.4 41.6 41.8 42.0 42.1 42.2 42.4 42.6 42.8 43.1 43.3 43.4 43.7 44.0 44.3 44.3 42.4 43.3 42.9 41.2 40.5 41.2 41.6 42.3 43.9 45.0 45.3 45.4 45.4 45.3 45.2 45.2 45.3 45.2 45.0 44.8 44.9 44.9 44.8 44.5 44.4 44.4 44.2 44.2 44.0 44.0 44.1 44.3 44.1 44.0 43.1 42.8 42.6 43.8 43.7 43.6 43.5 43.3 43.3 43.2 43.1 43.3 43.3 43.0 42.7 42.7 42.7 42.8 42.9 42.8 42.0 40.8 40.7
39.3 39.5 39.7 39.9 40.1 40.3 40.6 40.8 41.0 41.1 41.3 41.5 41.6 41.8 42.0 42.2 42.3 42.5 42.6 42.7 42.7 42.9 43.1 43.3 43.5 43.6 43.9 44.2 44.4 43.7 43.1 43.8 43.8 43.9 44.0 44.1 44.4 44.7 44.8 44.8 44.9 44.9 44.8 44.8 44.8 44.8 44.6 44.4 44.4 44.5 44.5 44.4 44.4 44.3 44.3 44.3 44.2 44.2 44.2 44.0 43.8 43.6 43.5 43.5 43.5 43.5 43.5 43.5 43.3 43.2 43.2 43.1 43.1 43.1 43.1 42.9 42.8 42.9 42.9 42.8 42.9 42.9 42.9 42.5 42.0
39.7 40.0 40.1 40.2 40.4 40.6 40.7 40.9 41.1 41.2 41.4 41.6 41.7 41.9 42.0 42.1 42.3 42.5 42.7 42.8 42.8 42.9 42.9 43.0 43.2 43.4 43.5 43.6 43.8 43.7 44.2 44.3 44.3 44.4 44.3 44.2 44.2 44.3 44.4 44.6 44.6 44.4 44.4 44.4 44.4 44.3 44.1 44.0 43.9 44.0 44.0 44.0 44.1 44.1 44.1 44.1 44.0 43.9 43.9 43.8 43.6 43.4 43.2 43.2 43.3 43.3 43.3 43.3 43.3 43.2 43.2 43.1 43.0 43.1 43.0 43.0 43.0 43.0 43.0 42.9 42.9 41.9 41.7 41.3 40.8
40.1 40.2 40.4 40.6 40.7 40.8 40.9 41.0 41.1 41.2 41.4 41.5 41.6 41.8 41.9 42.1 42.2 42.4 42.5 42.7 42.9 43.0 43.0 43.0 43.1 43.2 43.3 43.4 41.7 41.6 43.6 43.9 44.1 44.2 44.3 44.3 44.2 44.1 44.1 44.3 44.3 44.2 44.2 44.1 44.1 44.0 43.7 43.5 43.5 43.6 43.5 43.6 43.6 43.7 43.6 43.6 43.6 43.5 43.4 43.3 43.2 43.1 42.9 42.9 43.1 43.1 43.2 43.2 43.2 43.2 43.0 42.9 42.9 43.1 43.0 42.6 42.2 41.9 42.2 41.5 41.6 41.6 41.2 41.1 41.1
40.3 40.5 40.7 40.9 41.0 41.0 41.1 41.1 41.2 41.3 41.4 41.5 41.6 41.7 41.9 42.0 42.1 42.2 42.3 42.5 42.6 42.8 43.1 43.2 43.2 43.2 43.3 42.2 42.0 41.6 43.3 43.7 43.9 44.0 44.0 43.9 43.9 43.8 43.8 43.8 43.8 43.9 44.0 43.9 43.8 43.7 43.4 43.1 43.1 43.2 43.2 43.2 43.4 43.4 43.3 43.2 43.2 43.2 43.1 42.9 42.8 42.7 42.6 42.6 42.7 42.9 43.1 43.1 43.0 43.0 42.9 42.9 42.9 43.0 42.7 41.0 42.7 42.9 42.9 42.8 42.7 42.6 42.6 42.2 41.4
40.4 40.6 40.8 40.9 41.0 41.1 41.1 41.2 41.2 41.3 41.3 41.5 41.6 41.7 41.8 41.9 42.0 42.1 42.2 42.3 42.4 42.5 42.7 43.0 43.1 43.2 43.2 43.2 43.0 42.7 43.6 43.7 43.8 43.7 43.6 43.4 43.4 43.4 43.3 43.3 43.3 43.2 43.1 43.1 43.1 43.2 43.0 42.7 42.6 42.6 42.7 42.8 42.8 42.9 42.9 42.9 42.9 42.9 42.8 42.7 42.6 42.5 42.4 42.4 42.6 42.8 42.9 42.9 42.7 42.7 42.8 42.9 42.4 42.5 42.8 42.6 42.6 42.7 42.8 42.8 42.6 42.7 42.4 42.2 41.9
40.5 40.6 40.8 40.8 40.9 41.0 41.0 41.1 41.2 41.3 41.4 41.4 41.4 41.5 41.6 41.7 41.9 42.0 42.1 42.2 42.3 42.4 42.5 42.6 42.8 43.0 43.1 43.1 43.1 43.1 43.1 43.2 43.2 43.2 43.1 43.0 42.9 42.9 42.8 42.7 42.7 42.6 42.4 42.2 41.9 41.8 42.2 42.3 42.1 41.9 41.9 41.8 41.5 41.6 41.7 41.7 41.8 42.3 42.3 42.2 42.1 42.0 42.0 42.2 42.1 41.9 41.8 41.9 41.9 41.9 42.1 41.9 41.5 41.8 41.7 41.1 41.8 42.2 42.2 42.4 42.3 42.4 42.1 42.0 41.7
40.6 40.7 40.7 40.8 40.9 40.9 40.9 41.0 41.1 41.2 41.3 41.5 41.5 41.5 41.5 41.6 41.7 41.9 42.0 42.1 42.2 42.4 42.5 42.5 42.7 42.8 42.9 42.8 42.7 42.7 42.7 42.7 42.7 42.7 42.6 42.5 42.4 42.4 42.3 42.2 42.1 42.0 41.7 41.5 41.2 41.1 41.3 41.3 41.4 41.5 41.4 40.9 40.4 40.3 40.3 40.2 40.3 40.7 41.0 41.5 41.8 41.6 41.6 41.4 41.0 40.4 40.3 40.8 41.0 41.1 41.1 41.2 41.7 42.2 42.3 42.2 41.8 42.3 42.0 42.1 42.1 41.1 41.3 41.7 41.5
40.6 40.6 40.7 40.8 40.8 40.9 40.9 41.0 41.0 41.1 41.2 41.3 41.5 41.5 41.6 41.6 41.6 41.7 41.9 42.0 42.1 42.3 42.4 42.5 42.6 42.7 42.7 42.6 42.5 42.5 42.5 42.4 42.4 42.3 42.3 42.2 42.1 42.0 41.9 41.8 41.6 41.4 41.1 40.8 40.5 40.5 40.5 40.5 40.7 40.8 40.8 40.6 40.2 39.9 39.7 39.7 39.6 39.6 39.7 40.1 40.3 40.4 40.0 39.8 39.6 39.8 39.9 40.2 40.4 40.5 40.6 40.8 41.2 41.1 40.7 41.1 41.2 41.3 41.9 41.8 42.0 41.7 41.7 41.6 41.3
40.4 40.5 40.5 40.6 40.7 40.8 40.9 41.0 41.0 41.1 41.1 41.1 41.2 41.3 41.5 41.6 41.6 41.7 41.7 41.9 42.1 42.2 42.4 42.5 42.6 42.6 42.4 42.4 42.3 42.2 42.2 42.2 42.1 42.1 42.0 41.8 41.8 41.7 41.6 41.5 41.1 40.9 40.6 40.2 40.0 40.0 40.1 40.0 40.0 40.0 40.0 39.9 39.7 39.7 39.6 39.4 39.3 39.2 39.1 39.1 39.2 39.1 39.1 38.8 38.9 39.1 39.3 39.2 39.2 39.7 40.0 40.4 40.5 40.6 40.3 40.2 40.5 40.8 41.0 41.4 41.5 41.4 41.5 41.3 41.1
40.3 40.4 40.4 40.5 40.5 40.7 40.8 40.8 40.9 41.0 41.0 41.0 41.1 41.1 41.3 41.4 41.6 41.6 41.7 41.8 42.0 42.2 42.3 42.5 42.3 42.1 42.1 42.0 42.0 42.0 41.9 41.8 41.9 41.8 41.7 41.6 41.5 41.4 41.4 41.2 40.9 40.7 40.3 40.1 39.8 39.6 39.5 39.4 39.4 39.4 39.4 39.4 39.4 39.4 39.2 39.0 38.8 38.7 38.5 38.3 38.3 38.3 38.1 37.8 38.1 38.1 38.1 38.2 38.5 38.9 39.2 39.5 39.7 39.8 39.7 40.1 40.5 40.7 41.2 41.2 41.1 41.1 41.1 41.0 40.8
40.0 40.1 40.2 40.3 40.5 40.5 40.6 40.6 40.7 40.8 40.9 41.0 41.0 41.1 41.2 41.3 41.5 41.6 41.7 41.8 41.9 42.0 42.2 42.1 41.9 41.8 41.7 41.6 41.5 41.6 41.5 41.5 41.5 41.4 41.3 41.2 41.2 41.1 41.1 40.8 40.6 40.3 40.2 40.1 39.8 39.5 39.3 39.1 39.0 38.9 38.9 38.7 38.7 38.7 38.5 38.3 38.1 38.0 37.8 37.6 37.3 37.0 36.9 36.8 36.9 37.0 36.7 36.9 37.3 37.6 37.9 38.4 38.9 39.2 39.3 39.6 39.8 39.8 40.2 40.5 40.8 40.9 40.9 40.8 40.6
39.6 39.7 39.9 40.1 40.2 40.4 40.4 40.5 40.5 40.6 40.7 40.9 41.0 41.1 41.2 41.3 41.4 41.5 41.7 41.8 41.9 41.8 41.8 41.6 41.5 41.5 41.4 41.3 41.2 41.1 41.1 41.2 41.2 41.2 41.1 41.1 41.0 41.0 40.9 40.7 40.6 40.4 40.2 40.1 39.7 39.3 39.0 38.8 38.7 38.6 38.3 38.2 38.0 37.9 37.7 37.7 37.5 37.3 37.3 37.2 36.5 36.2 36.1 36.0 36.2 36.2 36.5 37.0 37.5 37.8 38.2 38.6 38.8 39.1 39.3 39.5 39.7 40.1 40.5 40.5 40.5 40.4 40.5 40.4 40.3
39.4 39.5 39.7 39.9 40.1 40.2 40.2 40.3 40.5 40.5 40.7 40.8 40.9 41.1 41.2 41.2 41.3 41.5 41.6 41.6 41.5 41.3 41.1 41.1 41.1 41.0 41.0 41.0 41.1 40.9 40.9 41.0 41.0 41.0 41.1 41.1 41.0 40.9 41.0 40.9 40.8 40.6 40.2 39.9 39.5 39.2 38.9 38.7 38.4 38.2 38.0 37.8 37.7 37.6 37.5 37.5 37.4 37.3 36.7 36.2 36.1 36.2 36.2 36.3 36.6 36.5 36.3 36.5 37.1 37.7 38.4 38.9 39.2 39.1 39.2 39.4 39.6 39.8 39.8 39.8 39.9 40.0 39.9 39.9 39.9